TimeCET,TemperatureF,Dew PointF,Humidity,Sea Level PressureIn,VisibilityMPH,Wind Direction,Wind SpeedMPH,Gust SpeedMPH,PrecipitationIn,Events,Conditions,WindDirDegrees,DateUTC
12:00 AM,17.6,14.0,86,29.74,6.2,Variable,2.3,-,N/A,,Scattered Clouds,0,2013-03-14 23:00:00
1:00 AM,15.8,14.0,93,29.74,6.2,Variable,2.3,-,N/A,,Scattered Clouds,0,2013-03-15 00:00:00
2:00 AM,10.4,6.8,85,29.74,5.0,ESE,2.3,-,N/A,,Scattered Clouds,110,2013-03-15 01:00:00
3:00 AM,10.4,8.6,92,29.74,5.0,Calm,Calm,-,N/A,,Unknown,0,2013-03-15 02:00:00
4:00 AM,10.4,8.6,92,29.74,3.7,East,2.3,-,N/A,,Partly Cloudy,80,2013-03-15 03:00:00
5:00 AM,10.4,8.6,92,29.77,3.7,East,3.5,-,N/A,Snow,Light Snow Showers,90,2013-03-15 04:00:00
6:00 AM,12.2,10.4,92,29.77,5.0,Calm,Calm,-,N/A,Snow,Light Snow Showers,0,2013-03-15 05:00:00
7:00 AM,10.4,8.6,92,29.80,4.3,Calm,Calm,-,N/A,,Partly Cloudy,0,2013-03-15 06:00:00
7:30 AM,12.2,10.4,92,29.80,3.7,Variable,2.3,-,N/A,,Unknown,0,2013-03-15 06:30:00
8:00 AM,15.8,12.2,86,29.80,3.1,Variable,1.2,-,N/A,,Mist,0,2013-03-15 07:00:00
8:30 AM,19.4,14.0,80,29.83,4.3,Variable,2.3,-,N/A,,Unknown,0,2013-03-15 07:30:00
9:00 AM,24.8,15.8,69,29.83,-9999.0,Variable,1.2,-,N/A,,Clear,0,2013-03-15 08:00:00
9:30 AM,21.2,14.0,74,29.83,6.2,West,3.5,-,N/A,,Partly Cloudy,260,2013-03-15 08:30:00
10:00 AM,23.0,15.8,74,29.83,6.2,WNW,3.5,-,N/A,,Mostly Cloudy,290,2013-03-15 09:00:00
10:10 AM,23.0,15.8,74,29.86,4.3,West,5.8,-,N/A,Snow,Light Snow Showers,280,2013-03-15 09:10:00
10:21 AM,23.0,15.8,74,29.86,1.9,West,6.9,-,N/A,Snow,Light Snow Showers,280,2013-03-15 09:21:00
10:30 AM,23.0,15.8,74,29.86,1.9,WNW,5.8,-,N/A,Snow,Light Snow Showers,290,2013-03-15 09:30:00
10:32 AM,23.0,15.8,74,29.86,0.7,WNW,5.8,-,N/A,Snow,Light Snow Showers,290,2013-03-15 09:32:00
10:48 AM,23.0,17.6,80,29.86,3.1,NW,5.8,-,N/A,Snow,Light Snow Showers,310,2013-03-15 09:48:00
11:00 AM,24.8,17.6,74,29.86,5.0,WNW,6.9,-,N/A,,Mostly Cloudy,300,2013-03-15 10:00:00
11:07 AM,24.8,15.8,69,29.86,3.1,NW,8.1,-,N/A,Snow,Light Snow Showers,310,2013-03-15 10:07:00
11:13 AM,24.8,15.8,69,29.86,1.2,WNW,6.9,-,N/A,Snow,Light Snow Showers,290,2013-03-15 10:13:00
11:22 AM,23.0,17.6,80,29.86,1.9,NW,5.8,-,N/A,Snow,Light Snow Showers,320,2013-03-15 10:22:00
11:30 AM,23.0,19.4,86,29.86,6.2,NNW,4.6,-,N/A,,Mostly Cloudy,330,2013-03-15 10:30:00
12:00 PM,26.6,14.0,59,29.86,6.2,WNW,6.9,-,N/A,,Scattered Clouds,300,2013-03-15 11:00:00
12:30 PM,26.6,12.2,55,29.86,6.2,NNW,6.9,-,N/A,,Scattered Clouds,330,2013-03-15 11:30:00
12:47 PM,26.6,12.2,55,29.86,6.2,WNW,9.2,-,N/A,Snow,Light Snow Showers,300,2013-03-15 11:47:00
1:00 PM,24.8,12.2,59,29.86,6.2,WNW,9.2,-,N/A,,Mostly Cloudy,290,2013-03-15 12:00:00
1:30 PM,24.8,10.4,54,29.86,6.2,NNW,6.9,-,N/A,,Mostly Cloudy,330,2013-03-15 12:30:00
2:00 PM,24.8,12.2,59,29.86,6.2,NNW,10.4,-,N/A,,Scattered Clouds,340,2013-03-15 13:00:00
2:30 PM,24.8,14.0,64,29.86,6.2,NNW,10.4,-,N/A,,Mostly Cloudy,340,2013-03-15 13:30:00
2:49 PM,24.8,14.0,64,29.86,6.2,NNW,9.2,-,N/A,Snow,Light Snow Showers,330,2013-03-15 13:49:00
3:00 PM,24.8,14.0,64,29.86,6.2,NNW,9.2,-,N/A,,Scattered Clouds,330,2013-03-15 14:00:00
3:30 PM,24.8,10.4,54,29.86,6.2,WNW,9.2,-,N/A,,Scattered Clouds,300,2013-03-15 14:30:00
4:00 PM,24.8,10.4,54,29.89,6.2,WNW,8.1,-,N/A,,Scattered Clouds,300,2013-03-15 15:00:00
4:30 PM,23.0,12.2,63,29.89,6.2,North,5.8,-,N/A,,Partly Cloudy,360,2013-03-15 15:30:00
5:00 PM,23.0,12.2,63,29.89,6.2,NNW,3.5,-,N/A,,Partly Cloudy,340,2013-03-15 16:00:00
5:30 PM,24.8,12.2,59,29.89,6.2,NNW,3.5,-,N/A,,Partly Cloudy,330,2013-03-15 16:30:00
6:00 PM,23.0,10.4,59,29.89,6.2,NW,6.9,-,N/A,,Partly Cloudy,310,2013-03-15 17:00:00
6:30 PM,21.2,10.4,63,29.92,6.2,NW,5.8,-,N/A,,Partly Cloudy,310,2013-03-15 17:30:00
7:00 PM,21.2,10.4,63,29.92,6.2,North,2.3,-,N/A,,Partly Cloudy,10,2013-03-15 18:00:00
7:30 PM,19.4,10.4,68,29.95,6.2,NNW,2.3,-,N/A,,Partly Cloudy,340,2013-03-15 18:30:00
8:00 PM,19.4,10.4,68,29.95,6.2,North,2.3,-,N/A,,Partly Cloudy,350,2013-03-15 19:00:00
9:00 PM,15.8,10.4,79,29.95,6.2,Variable,1.2,-,N/A,,Partly Cloudy,0,2013-03-15 20:00:00
10:00 PM,14.0,10.4,86,29.98,6.2,East,3.5,-,N/A,,Partly Cloudy,90,2013-03-15 21:00:00
11:00 PM,12.2,8.6,85,29.98,6.2,East,2.3,-,N/A,,Partly Cloudy,90,2013-03-15 22:00:00